Temperature
8 9 9 8 8 9 8 7 7 8 10 11 12 12 12 12 12 12 12 11 11 10 10 9 9 8 9 9 9 9 9 9 9 9 8 8 8 7 7 6 6 5 5 5
7 9 9 8 9 9 9 9 8 9 9 11 12 12 12 12 12 12 11 11 11 10 10 9 9 8 8 9 9 9 9 9 8 8 8 7 7 6 6 5 5 5 4 4
6 8 8 7 9 9 9 9 9 9 10 11 11 11 11 11 11 11 11 10 10 10 10 9 9 9 8 9 9 9 9 8 8 8 7 7 6 6 5 5 4 4 3 3
6 6 5 8 10 10 10 10 10 10 10 10 10 11 11 10 10 10 10 10 10 10 9 9 9 8 8 8 8 8 8 8 8 7 7 6 5 5 4 4 3 3 2 2
5 5 6 9 9 9 9 9 9 9 9 10 10 10 9 9 9 9 9 9 9 9 9 9 9 8 8 8 8 8 8 7 7 7 6 6 5 4 4 3 3 2 2 1
5 5 6 8 9 9 9 7 8 8 8 8 9 7 8 8 8 8 8 8 8 8 8 8 8 8 8 8 8 8 7 7 7 6 6 5 4 4 3 3 2 1 1 1
5 5 6 8 8 8 7 6 7 8 7 7 7 7 7 7 7 7 8 8 8 8 8 8 8 8 8 7 7 7 7 6 6 5 5 4 4 3 3 2 1 1 0 0
5 5 5 7 7 6 6 7 7 7 6 6 6 7 7 7 7 7 7 7 7 7 7 7 7 7 7 7 7 6 6 6 5 5 4 4 3 3 2 1 1 0 -0 -0
5 6 6 7 6 6 6 6 6 5 5 6 6 6 6 6 6 6 6 6 6 6 6 6 6 6 6 6 6 6 5 5 4 4 4 3 3 2 2 1 0 0 -0 -0
5 6 7 6 6 5 5 5 5 5 5 5 5 5 5 5 5 5 6 6 6 6 6 6 6 6 5 5 5 5 5 4 4 3 3 3 2 2 1 1 0 0 -0 -0
4 5 6 5 5 4 4 4 4 4 4 4 4 4 4 4 5 5 5 5 5 5 5 5 5 5 5 5 5 4 4 4 3 3 2 2 2 1 1 0 0 -0 -0 -0
3 4 3 4 3 3 3 3 3 3 3 4 4 4 4 4 4 4 5 5 5 5 5 5 5 5 5 4 4 4 3 3 2 2 2 1 1 1 0 -0 -0 -1 -1 -1
3 3 3 2 2 2 2 2 2 2 3 3 3 3 3 4 4 4 4 4 4 4 4 4 4 4 4 4 3 3 3 2 2 2 1 1 1 0 -0 -0 -1 -1 -1 -1
2 2 2 2 1 2 2 2 2 2 2 2 3 3 3 3 3 3 4 4 4 4 4 3 3 3 3 3 3 3 2 2 2 1 1 1 0 0 -0 -0 -1 -0 -1 -1
1 1 1 1 1 1 1 1 1 2 2 2 2 2 2 2 3 3 3 3 3 3 3 3 3 3 3 2 2 2 2 2 1 1 0 0 -0 -0 -0 -1 -1 -1 -1 -1
1 1 0 0 0 0 0 1 1 1 1 1 1 2 2 2 2 2 2 2 2 2 2 2 2 2 2 2 2 1 1 1 1 0 0 -0 -0 -1 -1 -1 -1 -1 -1 -1
0 -0 -0 -0 -0 -0 0 0 0 0 0 1 1 1 1 1 1 1 1 1 1 1 1 1 1 1 1 1 1 1 1 0 0 -0 -0 -1 -1 -1 -1 -1 -1 -1 -1 -1
-0 -0 -0 -1 -1 -1 -1 -0 -0 -0 -0 0 0 0 1 1 1 1 1 0 0 1 1 0 0 0 0 0 0 0 -0 -0 -0 -1 -1 -1 -1 -1 -1 -1 -1 -1 -1 -2
-1 -1 -1 -1 -1 -1 -1 -1 -1 -1 -0 -0 -0 -0 -0 -0 -0 -0 -0 -0 -0 -0 -0 -0 -0 -0 -0 -0 -0 -1 -1 -1 -1 -1 -1 -1 -2 -2 -2 -2 -2 -2 -2 -2
-0 -1 -1 -1 -1 -1 -1 -1 -1 -1 -1 -1 -1 -1 -1 -1 -1 -1 -1 -1 -1 -1 -1 -1 -1 -1 -1 -1 -1 -1 -1 -1 -1 -2 -2 -2 -2 -2 -2 -2 -2 -2 -2 -3
-1 -1 -1 -1 -1 -1 -1 -1 -2 -2 -1 -1 -1 -1 -1 -1 -1 -1 -1 -1 -1 -1 -1 -1 -1 -1 -1 -1 -2 -2 -2 -2 -2 -2 -2 -2 -3 -3 -3 -3 -3 -3 -3 -3
-1 -1 -1 -1 -1 -1 -2 -2 -2 -2 -2 -2 -2 -2 -2 -2 -2 -2 -2 -2 -2 -2 -2 -2 -2 -2 -2 -2 -2 -2 -2 -2 -3 -3 -3 -3 -3 -3 -3 -3 -3 -3 -4 -4
-1 -1 -1 -2 -2 -2 -2 -2 -2 -2 -2 -2 -2 -2 -2 -2 -2 -2 -2 -2 -2 -2 -2 -2 -2 -2 -2 -3 -3 -3 -3 -3 -3 -3 -3 -4 -4 -4 -4 -4 -4 -4 -4 -4
-1 -1 -2 -2 -2 -2 -2 -2 -2 -2 -2 -2 -2 -3 -3 -3 -2 -2 -3 -3 -3 -3 -3 -3 -3 -3 -3 -3 -3 -3 -3 -4 -4 -4 -4 -4 -4 -4 -4 -4 -4 -5 -5 -5
-1 -2 -2 -2 -2 -2 -2 -2 -2 -2 -2 -2 -3 -3 -3 -3 -3 -3 -3 -3 -3 -3 -3 -3 -3 -3 -3 -4 -4 -4 -4 -4 -4 -5 -5 -5 -5 -5 -5 -5 -5 -5 -5 -5
-1 -2 -2 -2 -2 -2 -2 -2 -3 -3 -3 -3 -3 -3 -3 -3 -3 -3 -3 -3 -3 -4 -4 -4 -4 -4 -4 -4 -4 -4 -4 -5 -5 -5 -5 -5 -5 -5 -6 -6 -6 -6 -6 -6
-2 -2 -2 -2 -2 -2 -2 -3 -3 -3 -3 -3 -3 -3 -3 -3 -3 -4 -4 -4 -4 -4 -4 -4 -4 -4 -4 -5 -5 -5 -5 -5 -5 -5 -6 -6 -6 -6 -6 -6 -6 -6 -6 -6
Wind_Speed
9 9 7 8 9 10 11 10 9 10 11 10 7 6 5 4 4 4 4 4 6 7 7 8 8 8 8 8 8 8 8 8 8 8 7 7 6 6 5 4 4 4 4 4
8 9 9 11 12 13 14 14 15 15 16 11 9 7 7 6 6 6 5 5 6 7 7 8 9 9 9 9 9 9 9 8 8 8 8 7 7 6 5 5 4 4 4 4
5 6 7 9 11 13 12 11 11 14 12 8 8 7 6 5 5 6 6 5 5 6 7 8 9 9 10 10 9 10 9 9 9 9 8 7 7 6 6 5 4 4 4 4
4 4 6 5 1 3 7 9 8 8 8 7 7 7 5 4 5 6 5 4 4 4 5 5 7 8 9 9 10 9 9 9 9 9 9 8 7 6 6 5 4 4 4 4
3 5 8 4 1 1 3 5 3 5 6 6 6 5 4 3 3 3 4 4 3 3 3 4 5 8 9 10 9 9 10 10 10 10 10 9 8 7 5 5 4 4 4 4
4 5 5 1 3 3 2 2 7 7 7 8 6 4 3 6 6 5 5 4 3 1 1 3 4 7 9 10 10 10 10 9 10 10 10 9 8 7 5 5 5 5 4 4
7 6 6 2 2 2 1 2 7 7 7 7 5 4 5 6 5 5 4 3 3 1 1 2 4 6 8 8 9 8 8 9 9 9 9 8 8 6 7 6 6 5 5 4
4 6 5 3 3 2 3 5 6 7 7 7 7 7 7 6 5 4 3 3 3 2 2 2 3 5 6 6 6 7 8 9 9 8 8 8 8 7 7 7 7 6 5 5
4 4 2 2 3 3 4 6 6 7 7 7 8 8 7 6 4 3 2 2 2 2 2 1 2 4 5 5 7 8 8 8 8 8 7 8 8 8 7 7 6 6 6 5
5 4 4 5 5 6 6 7 8 7 8 8 8 8 8 6 4 3 1 1 1 1 1 1 2 3 4 6 7 8 8 8 8 8 8 8 7 7 7 8 7 7 7 6
6 6 6 3 6 8 9 8 8 8 8 8 8 8 7 6 5 3 2 1 0 1 1 1 2 3 4 6 7 7 8 8 8 8 8 8 7 8 8 8 9 8 7 7
4 5 6 8 8 9 10 10 9 9 10 8 7 7 7 5 3 3 2 1 1 1 1 1 2 3 4 5 6 7 6 7 6 6 6 6 6 5 9 9 12 13 11 9
5 8 9 10 9 9 9 10 9 8 9 9 7 6 5 4 3 3 2 2 1 1 1 1 2 3 3 5 5 6 6 6 6 6 6 6 6 6 5 7 10 12 13 13
6 7 8 7 9 9 9 9 9 8 7 6 6 5 4 4 3 3 2 2 1 1 1 1 2 2 3 4 5 5 5 6 6 6 6 6 7 6 6 6 5 5 10 15
5 7 8 10 9 9 8 8 8 7 6 5 5 5 4 3 3 3 3 2 1 0 0 0 1 1 1 3 4 5 5 4 5 5 5 5 6 6 5 6 6 5 4 7
7 8 8 8 9 9 9 8 7 7 6 5 5 4 4 3 2 2 2 2 1 1 1 1 1 1 0 2 3 3 4 6 6 4 5 5 5 6 6 6 6 6 7 6
6 7 7 9 9 9 9 8 7 6 5 5 4 4 3 3 3 2 2 2 2 2 2 2 2 2 1 1 2 2 3 4 6 5 5 5 5 6 6 6 7 7 7 8
5 6 6 8 8 9 8 7 5 5 4 4 3 3 3 3 3 3 2 2 1 1 2 2 3 2 2 1 2 2 2 3 4 4 4 5 5 5 6 6 7 8 6 7
4 5 6 6 6 6 6 5 5 4 4 3 3 3 3 3 3 2 2 2 2 2 2 3 4 2 2 2 2 2 2 3 3 4 4 6 6 5 6 6 7 7 6 6
4 4 5 5 5 5 5 5 4 4 3 3 3 3 3 3 3 3 2 2 1 1 2 3 3 2 2 3 3 2 3 3 4 4 4 4 5 5 6 6 7 7 7 7
4 5 5 5 5 4 4 5 4 4 3 3 2 2 3 3 3 3 3 2 1 2 3 4 3 2 3 3 4 2 3 3 3 4 4 4 5 5 6 6 6 6 7 7
4 4 5 5 5 4 4 4 4 4 3 3 3 3 3 3 3 3 2 2 2 4 3 3 2 4 5 5 2 3 3 3 3 3 3 4 4 5 5 5 6 6 6 6
4 4 5 5 5 4 4 4 3 3 3 3 3 3 3 3 2 2 3 2 2 4 3 3 5 7 7 4 2 2 3 3 3 3 3 4 4 4 5 5 5 5 5 6
4 4 4 4 4 4 5 5 4 3 3 3 3 3 3 3 3 2 2 4 5 5 3 5 7 7 6 3 2 3 3 3 3 3 4 4 4 4 5 5 5 5 5 6
4 4 5 5 4 4 5 4 4 4 4 3 4 3 2 2 2 3 2 3 5 5 3 5 7 7 4 3 3 3 3 3 4 3 3 3 4 4 5 5 5 5 5 5
5 4 4 5 4 4 3 3 3 3 3 3 3 2 2 2 2 2 2 3 4 5 4 3 4 4 3 3 3 3 3 4 4 4 4 4 5 5 5 5 6 6 6 6
5 4 4 4 4 4 3 3 4 4 3 3 4 2 2 2 2 2 3 3 3 3 3 3 3 3 3 3 3 3 3 3 3 4 4 4 4 5 5 6 6 5 5 6
Wind_Direction
268 274 262 253 249 236 231 234 242 259 268 275 286 290 296 296 287 266 243 218 202 191 189 183 179 175 169 163 158 155 152 153 151 141 133 129 128 130 127 124 121 119 118 117
273 266 259 259 254 248 242 241 248 261 268 270 282 288 291 287 285 273 259 238 220 207 197 189 183 177 170 167 163 157 158 157 147 141 139 140 142 143 140 138 136 134 135 134
273 283 286 261 244 240 239 239 242 252 263 283 288 290 293 297 292 281 269 254 234 219 207 196 186 176 174 168 160 159 160 156 152 151 150 151 152 149 150 151 146 146 143 138
284 298 252 248 293 265 259 260 252 260 277 287 293 300 298 301 300 293 289 275 253 227 210 192 176 166 161 156 157 161 162 161 159 158 156 154 155 160 157 151 152 151 149 148
261 267 272 259 261 294 276 281 312 312 317 325 330 320 319 354 344 326 320 304 280 241 208 175 162 156 152 155 159 165 171 170 167 164 161 161 166 166 157 152 153 157 159 159
252 265 267 319 30 16 325 290 19 10 359 352 348 324 319 1 4 352 339 333 326 316 136 152 156 149 154 162 167 179 178 171 165 164 164 166 168 162 154 154 160 162 169 177
244 255 269 345 4 12 305 323 356 359 352 351 345 323 322 341 351 343 335 334 340 2 100 137 140 146 161 167 179 174 159 155 157 160 162 162 160 158 158 162 166 172 179 192
227 235 248 20 13 6 335 340 344 346 342 337 327 324 331 334 332 333 340 0 16 44 66 82 119 144 162 172 162 146 147 152 157 159 161 161 160 164 168 171 176 182 186 197
236 247 318 350 347 353 356 341 340 336 328 325 320 319 319 321 323 330 353 11 24 67 76 74 115 142 162 163 145 145 151 159 161 162 162 163 167 173 177 181 185 190 192 200
290 286 319 324 350 359 351 334 329 325 320 319 311 311 315 317 319 318 335 359 37 111 146 176 158 149 161 153 150 154 163 167 168 169 170 173 177 180 186 190 193 195 199 203
273 296 313 328 351 343 335 329 324 324 320 312 306 304 307 308 314 314 310 326 279 183 190 190 167 168 160 155 157 167 173 174 175 178 177 183 188 194 196 201 198 197 202 198
279 327 315 306 321 322 318 316 315 314 311 309 302 300 302 298 302 304 298 295 274 223 208 202 171 164 160 159 165 173 179 180 180 180 182 185 189 201 211 209 214 214 208 203
303 314 304 300 311 317 313 311 311 303 299 300 301 299 302 302 308 308 304 300 274 256 226 190 170 172 169 164 173 184 186 183 181 183 186 190 191 197 207 219 225 226 224 223
321 316 301 307 312 314 309 309 307 302 299 300 306 307 304 305 310 311 311 309 302 261 217 185 179 187 176 171 181 193 191 189 188 192 194 196 198 201 201 204 214 229 230 231
324 317 303 306 309 311 308 308 309 307 311 319 324 320 319 314 311 323 335 339 336 5 52 172 188 196 169 176 189 197 196 195 193 194 195 198 199 202 206 211 219 222 216 226
314 308 308 311 313 318 318 315 309 309 314 317 322 325 327 326 324 329 346 3 3 349 355 353 313 310 226 194 200 204 207 206 195 195 198 200 204 208 213 218 222 223 225 221
310 309 314 315 314 313 313 314 311 310 313 315 321 326 325 325 331 344 0 6 7 13 25 15 338 329 286 221 209 212 209 212 208 204 207 209 211 215 218 220 225 229 231 224
289 294 302 306 309 310 310 314 318 321 321 321 324 328 332 334 331 335 343 350 1 28 30 4 344 323 302 273 243 232 220 216 213 216 217 218 222 220 220 225 229 234 236 234
301 306 309 311 311 309 313 320 323 324 327 329 332 336 341 344 340 338 345 350 338 330 348 346 331 320 300 284 278 251 239 230 228 228 226 234 236 229 228 231 235 235 234 230
303 309 309 313 318 318 317 317 319 320 325 330 332 337 346 347 345 342 341 336 346 354 342 332 323 309 301 291 286 263 253 245 242 239 233 231 236 237 236 237 239 241 240 239
306 308 308 306 305 307 308 312 313 314 319 324 324 326 326 328 332 330 322 312 338 356 336 329 326 317 311 309 289 269 256 254 252 249 247 245 246 246 245 244 243 244 245 245
297 298 299 300 299 299 302 305 306 305 312 318 321 319 317 317 319 314 291 279 312 335 336 322 316 318 319 315 292 281 272 266 264 260 256 256 255 256 256 254 252 252 250 248
286 287 290 293 293 293 297 297 295 296 297 298 302 303 298 296 299 297 300 320 327 330 329 311 317 319 318 313 294 285 285 280 275 272 268 265 264 263 264 264 263 264 263 259
282 287 287 288 288 289 287 285 281 278 277 280 281 281 283 292 297 270 263 310 322 321 316 314 320 322 323 316 299 294 289 287 285 284 280 273 269 268 268 269 269 269 268 267
268 274 276 275 275 273 275 279 280 278 277 276 275 273 265 252 261 292 306 307 312 317 314 318 322 325 325 309 306 300 295 289 287 288 283 289 288 285 281 279 277 275 272 270
256 259 258 253 255 261 268 272 272 272 272 277 277 268 263 259 265 281 292 295 297 305 306 302 310 317 313 307 305 303 298 300 303 300 295 292 290 289 287 287 286 283 281 278
258 257 258 262 259 248 248 253 260 267 265 269 280 274 267 269 270 276 281 285 290 291 292 295 297 299 300 301 301 301 300 297 292 290 290 288 287 287 287 286 284 283 281 279
Height
1489 1486 1485 1487 1486 1485 1488 1488 1489 1480 1475 1470 1468 1467 1467 1467 1466 1466 1466 1467 1467 1468 1468 1469 1471 1472 1474 1476 1478 1481 1483 1485 1487 1489 1490 1491 1492 1492 1492 1493 1493 1493 1493 1493
1488 1483 1482 1482 1479 1479 1479 1478 1478 1476 1471 1466 1466 1465 1464 1464 1464 1463 1463 1464 1464 1465 1465 1466 1467 1468 1470 1472 1475 1477 1479 1482 1483 1485 1486 1487 1488 1488 1489 1489 1489 1489 1489 1489
1490 1482 1481 1482 1472 1471 1470 1468 1469 1470 1466 1463 1463 1462 1461 1461 1461 1460 1460 1460 1460 1461 1461 1462 1463 1464 1466 1469 1471 1473 1476 1478 1479 1481 1482 1483 1484 1484 1485 1485 1485 1486 1486 1486
1491 1488 1490 1473 1464 1463 1463 1462 1462 1461 1461 1460 1460 1459 1458 1458 1458 1457 1457 1456 1456 1457 1457 1458 1459 1461 1463 1465 1467 1469 1472 1473 1475 1477 1478 1479 1480 1481 1481 1481 1482 1482 1482 1483
1492 1489 1478 1468 1464 1463 1463 1463 1461 1460 1459 1458 1457 1456 1456 1456 1455 1454 1454 1453 1453 1453 1453 1454 1455 1457 1459 1461 1463 1465 1467 1469 1471 1473 1474 1475 1476 1477 1477 1478 1478 1479 1479 1480
1489 1488 1481 1469 1465 1462 1464 1465 1463 1462 1461 1460 1458 1459 1458 1455 1453 1452 1451 1450 1449 1449 1450 1451 1452 1453 1455 1457 1459 1461 1463 1465 1467 1469 1470 1471 1472 1473 1473 1474 1475 1476 1476 1477
1488 1486 1475 1469 1466 1465 1471 1471 1466 1464 1463 1461 1460 1460 1458 1454 1452 1450 1448 1447 1446 1446 1447 1447 1448 1450 1451 1453 1455 1457 1460 1461 1463 1465 1466 1467 1468 1469 1470 1471 1471 1472 1473 1474
1482 1483 1479 1470 1467 1470 1471 1467 1465 1464 1462 1461 1459 1457 1455 1453 1450 1448 1447 1445 1445 1444 1444 1445 1445 1447 1448 1450 1452 1454 1456 1457 1459 1461 1462 1463 1464 1465 1466 1467 1468 1468 1470 1471
1477 1476 1470 1469 1469 1469 1468 1466 1464 1463 1461 1459 1457 1455 1453 1451 1449 1447 1445 1444 1443 1443 1443 1443 1444 1445 1446 1447 1449 1450 1452 1453 1455 1457 1458 1459 1460 1461 1462 1463 1464 1465 1466 1467
1473 1468 1468 1468 1467 1467 1466 1464 1463 1461 1459 1457 1454 1452 1451 1449 1447 1445 1444 1442 1442 1441 1441 1441 1441 1442 1443 1445 1446 1447 1448 1450 1451 1452 1454 1455 1456 1457 1458 1458 1460 1461 1462 1463
1473 1469 1467 1466 1466 1465 1463 1461 1459 1458 1456 1454 1452 1449 1448 1446 1445 1443 1442 1441 1440 1440 1439 1439 1440 1440 1441 1442 1443 1444 1445 1446 1447 1448 1449 1450 1452 1453 1453 1455 1456 1457 1458 1460
1473 1470 1469 1466 1464 1462 1460 1458 1456 1454 1451 1450 1448 1446 1444 1443 1442 1441 1440 1439 1438 1438 1437 1437 1437 1437 1438 1439 1439 1440 1441 1442 1443 1444 1445 1446 1447 1448 1449 1451 1452 1453 1454 1455
1470 1467 1466 1463 1460 1459 1457 1454 1452 1450 1448 1446 1444 1443 1441 1440 1439 1438 1437 1436 1436 1435 1435 1434 1434 1434 1435 1435 1436 1436 1437 1438 1439 1440 1441 1442 1443 1444 1445 1446 1448 1448 1450 1451
1466 1464 1461 1459 1457 1455 1452 1450 1448 1446 1444 1442 1441 1439 1438 1436 1436 1435 1434 1434 1433 1432 1432 1431 1431 1431 1431 1432 1432 1432 1433 1434 1435 1436 1437 1438 1439 1440 1441 1442 1443 1443 1445 1446
1462 1461 1459 1456 1453 1451 1448 1446 1444 1442 1440 1439 1437 1436 1434 1433 1433 1432 1431 1431 1430 1429 1429 1428 1428 1428 1428 1428 1429 1429 1429 1430 1431 1432 1433 1433 1434 1435 1436 1437 1438 1439 1440 1441
1459 1457 1455 1452 1450 1447 1445 1443 1441 1439 1437 1435 1434 1432 1431 1431 1430 1429 1428 1428 1427 1426 1426 1426 1425 1425 1425 1425 1425 1425 1426 1426 1427 1428 1428 1429 1430 1430 1431 1431 1432 1433 1434 1436
1455 1453 1451 1449 1446 1444 1442 1440 1438 1436 1434 1433 1431 1430 1429 1428 1427 1427 1426 1425 1424 1424 1423 1423 1422 1422 1422 1421 1421 1421 1422 1422 1423 1423 1424 1424 1425 1425 1426 1427 1427 1428 1429 1430
1453 1451 1449 1446 1444 1441 1439 1437 1435 1433 1432 1430 1429 1428 1427 1426 1425 1424 1423 1423 1422 1421 1421 1420 1420 1419 1419 1418 1418 1418 1418 1418 1418 1419 1419 1420 1420 1421 1421 1421 1422 1422 1423 1424
1449 1447 1445 1443 1441 1439 1436 1434 1432 1431 1429 1428 1427 1426 1425 1424 1423 1422 1422 1421 1420 1419 1419 1418 1417 1416 1416 1415 1415 1414 1414 1414 1414 1415 1415 1415 1415 1416 1416 1416 1416 1416 1417 1417
1446 1444 1442 1440 1438 1436 1434 1432 1430 1429 1427 1426 1425 1424 1423 1422 1421 1421 1420 1419 1418 1417 1416 1415 1414 1414 1413 1412 1412 1411 1411 1410 1410 1410 1410 1410 1410 1410 1410 1410 1410 1410 1410 1410
1442 1441 1439 1437 1435 1433 1432 1430 1428 1427 1426 1425 1424 1422 1421 1421 1420 1419 1418 1417 1416 1415 1414 1413 1412 1411 1410 1409 1409 1408 1407 1407 1407 1406 1406 1406 1406 1405 1405 1405 1405 1404 1404 1404
1439 1438 1436 1434 1433 1431 1430 1428 1426 1425 1424 1423 1422 1421 1420 1419 1418 1417 1416 1415 1414 1413 1412 1411 1410 1408 1407 1406 1405 1405 1404 1403 1403 1402 1402 1401 1401 1400 1400 1399 1399 1398 1398 1397
1436 1435 1433 1432 1430 1429 1427 1426 1424 1423 1422 1421 1420 1419 1418 1417 1416 1415 1414 1413 1412 1411 1410 1408 1407 1406 1404 1403 1402 1401 1400 1400 1399 1398 1398 1397 1396 1396 1395 1394 1393 1392 1392 1391
1433 1432 1430 1429 1427 1426 1424 1423 1422 1421 1420 1418 1417 1416 1415 1414 1413 1412 1411 1410 1409 1408 1407 1406 1404 1403 1402 1400 1399 1398 1397 1396 1395 1394 1393 1392 1392 1391 1389 1388 1387 1386 1386 1385
1430 1428 1427 1425 1424 1422 1421 1420 1419 1418 1416 1415 1414 1413 1412 1411 1410 1409 1408 1407 1406 1405 1403 1402 1401 1400 1398 1397 1396 1395 1393 1392 1391 1390 1389 1388 1386 1385 1384 1383 1382 1380 1379 1378
1426 1424 1423 1422 1421 1419 1418 1417 1416 1414 1413 1412 1411 1410 1409 1408 1407 1406 1405 1404 1403 1401 1400 1399 1398 1397 1395 1394 1392 1391 1390 1388 1387 1386 1384 1383 1381 1380 1379 1377 1376 1374 1373 1372
1421 1420 1419 1418 1417 1416 1415 1413 1412 1411 1410 1409 1407 1407 1406 1404 1403 1402 1401 1400 1399 1398 1397 1396 1394 1393 1392 1390 1389 1387 1386 1384 1383 1381 1380 1378 1377 1375 1373 1372 1370 1369 1367 1366